Location: Poughquag
(41.6090°N, 73.6820°W)
Time: 03:10:59
(UTC-04:00)

Vanguard 1 Rocket - Pass Details

Date: 30 May 2020
Orbit: 653 x 4224 km, 34.3° (Epoch: 06 July)

Event Time Altitude Azimuth Distance (km) Brightness Sun altitude
Rises 01:38:04 0° 239° (WSW) 8,009 11.8 -25.7°
Reaches altitude 10° 01:44:20 10° 236° (SW) 6,576 11.3 -25.4°
Maximum altitude 02:02:17 52° 168° (SSE) 2,662 9.3 -24.5°
Drops below altitude 10° 02:11:41 10° 95° (E) 3,618 10.6 -23.9°
Sets 02:14:05 0° 89° (E) 4,284 11.1 -23.8°
